Theta_e
311 311 311 311 311 311 311 311 311 311 311 311 311 311 312 312 312 312 312 313 313 313 313 313 313 313 313 314 314 314 313 307 304 301 301 301 311 316 322 324 326 324 324 309 307 304 302 304 303 305 304 304 303 302 303 305 302 298 291 287 286 286 288 289 291 291 294 293 293 295 296 294 296 306 324 326 329 329 329 328 331 333 332 334 334 336 337 337
310 311 311 311 311 311 311 311 311 311 311 311 311 311 311 311 312 312 312 313 312 313 313 313 313 313 313 313 314 314 310 306 300 300 300 310 322 322 323 325 330 328 322 307 303 301 300 300 300 303 302 301 303 301 303 299 303 295 289 288 288 288 291 292 293 294 294 293 294 295 295 296 296 302 309 320 321 323 324 327 329 327 331 333 334 335 335 336
310 310 311 310 310 311 310 310 311 311 311 311 311 311 311 311 312 312 312 312 312 312 312 313 313 313 313 313 313 314 308 301 300 296 300 318 318 321 323 324 326 330 311 303 303 303 299 298 301 302 301 300 300 300 300 297 301 296 290 287 289 291 292 293 295 296 297 296 295 294 295 294 296 298 306 319 318 323 322 323 326 326 327 330 331 333 334 335
311 311 310 310 310 310 311 311 310 310 311 311 311 311 311 311 312 312 312 312 312 312 312 312 313 312 313 313 313 309 303 300 290 294 299 327 324 322 323 324 327 328 308 306 306 304 302 302 302 302 300 300 298 300 297 297 296 294 294 290 291 292 293 297 297 297 297 296 296 294 295 295 296 297 311 318 314 315 318 327 327 325 328 329 331 332 333 333
311 311 310 310 310 310 310 310 311 310 310 311 311 311 311 311 311 312 312 312 312 312 312 312 312 312 312 313 313 306 301 285 287 299 308 331 332 327 324 326 333 318 308 304 304 303 303 301 301 302 300 295 297 297 293 295 297 294 294 296 293 293 293 297 296 296 296 296 294 293 295 297 297 308 316 313 306 306 319 327 330 331 331 330 330 331 332 332
310 310 309 309 310 310 310 310 310 310 310 310 310 310 310 311 311 311 311 312 312 312 311 312 312 312 313 313 308 304 290 281 295 300 336 333 332 328 325 332 331 314 305 303 301 301 301 301 300 297 296 296 295 296 294 296 298 292 291 293 293 297 296 299 297 296 295 295 295 297 296 297 295 295 307 303 304 306 320 330 333 332 332 333 333 332 331 331
310 309 308 309 309 309 310 310 310 310 310 310 310 311 310 310 311 311 311 311 311 311 311 311 311 312 312 311 303 302 287 288 296 299 332 334 332 327 331 333 328 308 305 301 300 299 298 299 299 296 295 296 295 295 298 297 297 294 291 292 295 295 295 297 297 294 293 294 294 296 297 298 295 295 296 305 311 306 329 334 334 333 333 333 331 331 331 331
310 310 309 309 309 309 309 309 309 309 310 310 310 310 310 310 310 311 311 311 311 311 311 311 311 312 312 302 301 294 294 293 298 301 327 332 326 326 329 317 309 306 304 301 299 298 299 299 298 299 296 295 294 297 297 296 295 292 291 293 295 296 295 296 296 297 295 294 293 296 297 295 294 295 296 312 320 328 333 334 333 333 332 332 331 330 331 330
309 309 309 309 309 309 309 309 309 309 309 309 309 310 310 310 310 310 310 311 310 310 311 311 311 311 312 303 297 288 287 300 302 314 326 322 322 321 316 311 307 305 303 300 299 298 300 298 299 301 295 296 298 296 296 293 291 294 296 296 295 295 296 295 294 293 294 296 295 296 294 293 293 295 296 315 323 331 334 333 333 332 331 330 331 331 330 329
309 309 309 309 309 308 309 309 309 309 309 309 309 309 310 310 309 310 310 310 310 310 310 311 311 311 305 300 294 283 291 297 307 319 320 320 316 314 311 309 306 304 301 300 298 299 300 300 301 302 301 298 299 297 295 294 292 293 294 294 295 296 296 295 294 293 293 295 294 295 292 293 295 295 291 315 326 332 333 332 333 332 330 331 332 331 330 329
308 307 307 308 309 309 308 308 309 309 309 309 309 309 309 309 309 309 309 310 310 310 310 310 311 309 301 301 288 283 294 313 316 317 318 315 312 309 308 307 307 304 302 299 299 301 302 304 306 307 303 297 297 294 296 296 296 295 294 293 292 293 293 294 293 292 293 295 293 294 293 293 293 294 297 320 326 332 330 331 332 332 332 332 332 331 330 330
308 308 308 307 308 308 309 308 308 309 309 309 309 309 309 308 308 309 309 310 310 310 309 310 311 309 305 298 292 291 300 308 310 316 315 312 308 308 308 308 307 305 303 300 300 301 303 304 307 305 297 302 293 295 293 295 297 295 295 291 292 290 293 292 293 294 293 295 294 294 293 292 291 292 302 322 328 330 330 329 330 331 332 333 333 332 330 330
308 309 309 309 308 308 308 308 309 309 308 308 308 308 308 308 308 309 309 309 310 310 310 310 310 308 302 288 292 300 302 302 301 302 312 315 314 316 311 310 306 306 305 302 300 301 303 306 307 304 303 301 294 292 296 298 295 296 294 290 290 287 287 290 293 294 294 296 294 295 286 285 289 291 307 323 327 329 328 327 328 329 330 332 333 332 330 329
308 309 309 308 309 309 308 308 308 308 308 308 308 308 308 308 308 309 309 309 311 310 310 310 310 307 300 291 296 303 303 303 304 303 301 311 314 313 314 312 308 305 305 302 303 301 305 306 307 306 302 297 295 296 296 291 293 291 290 291 286 287 284 289 293 293 294 295 294 295 287 288 289 290 306 324 327 327 325 326 327 327 327 329 331 331 330 329
306 307 308 308 308 307 307 307 308 308 308 308 308 308 308 307 308 309 310 310 310 311 311 311 310 303 293 294 302 305 318 312 304 303 304 312 312 309 309 312 307 306 304 303 304 306 306 305 303 300 295 300 298 295 289 287 286 288 287 283 283 285 283 289 292 293 293 295 295 294 288 289 293 292 307 323 326 327 324 325 326 326 325 326 328 329 329 328
306 306 308 308 308 308 307 307 307 307 307 307 307 307 308 308 309 309 309 309 311 310 310 304 304 303 297 288 293 319 307 306 307 312 306 311 312 307 306 310 307 305 304 302 305 305 305 303 299 295 296 296 292 282 283 285 284 285 286 282 286 285 284 288 291 293 294 294 295 294 287 286 290 293 308 323 325 325 323 323 324 324 324 324 325 327 327 327
306 306 306 307 307 307 307 307 307 307 307 307 307 307 308 308 308 309 309 310 309 310 307 300 304 305 290 297 303 300 299 304 309 309 306 307 313 308 303 301 301 300 301 300 304 303 303 301 298 297 293 289 287 286 286 281 280 281 284 284 286 287 285 285 289 291 293 294 290 293 291 290 291 293 308 320 323 321 321 322 323 323 323 323 323 323 323 325
307 307 306 306 307 306 306 306 307 307 307 307 306 306 304 307 309 308 307 308 309 307 305 306 304 297 292 300 292 296 303 302 304 305 307 307 312 308 301 300 299 298 298 298 302 298 299 296 295 289 290 291 289 285 283 281 283 282 283 284 284 284 287 286 287 289 293 293 291 291 290 292 290 292 301 316 320 319 319 321 321 322 322 322 320 320 321 324
307 307 307 307 306 306 306 306 306 306 306 307 306 307 307 308 307 304 302 304 298 289 286 292 294 283 285 295 298 301 304 305 304 305 303 305 306 307 305 303 298 297 295 293 294 296 296 294 291 288 285 285 287 287 287 286 286 286 286 285 284 285 284 286 289 292 294 291 289 289 289 291 292 294 302 306 315 313 315 318 319 321 322 319 318 319 320 322
307 307 307 307 307 306 306 306 306 306 306 304 302 300 299 297 299 299 301 301 296 291 290 295 299 297 296 296 298 303 306 306 300 300 303 306 304 302 301 302 299 297 294 291 293 295 293 287 284 284 285 288 289 288 289 288 289 288 288 287 286 286 287 289 291 294 292 292 290 290 291 291 291 293 297 306 311 312 313 314 316 319 317 315 317 319 320 320
306 306 306 307 307 306 306 306 306 306 306 303 300 295 289 296 294 292 295 297 300 299 297 298 299 298 295 299 301 302 298 299 301 298 303 308 303 301 297 298 295 293 292 293 293 299 295 286 286 287 289 289 289 289 290 291 291 289 287 287 285 287 285 290 292 294 294 292 288 289 289 290 290 292 293 304 312 311 312 313 314 315 314 314 317 318 319 320
306 306 305 306 306 305 305 305 306 306 306 303 299 293 294 294 298 299 292 287 296 300 299 298 300 298 302 301 302 304 303 298 300 300 300 306 300 298 295 295 291 290 293 293 293 290 288 286 289 290 290 291 292 291 291 290 290 289 287 286 286 286 287 291 292 292 294 292 287 288 289 290 291 294 295 305 311 312 314 314 316 315 313 314 317 318 319 320
306 306 305 305 305 305 305 305 306 306 300 295 294 294 292 297 300 300 296 289 289 297 299 298 296 297 298 302 303 304 297 296 295 298 297 303 297 298 295 293 292 291 293 292 289 285 286 287 291 292 291 291 290 290 290 290 290 287 286 284 283 285 288 284 289 291 293 291 287 288 289 289 292 293 294 299 309 309 312 314 315 316 314 314 317 319 320 321
305 306 306 305 305 305 305 305 306 301 297 297 296 295 300 300 301 300 294 289 289 295 298 300 300 298 298 297 303 302 298 298 298 297 301 302 297 297 296 294 292 291 290 291 290 288 287 291 294 292 290 290 289 289 288 286 285 286 288 285 285 286 287 287 287 290 292 292 291 289 286 285 289 291 293 295 294 302 310 312 312 314 314 314 317 319 322 321
305 305 305 306 305 305 305 305 297 297 300 298 296 300 302 302 302 302 292 291 292 293 302 300 302 301 301 307 307 299 300 300 300 300 301 302 297 297 295 297 292 289 290 291 290 289 290 294 293 291 289 289 289 288 288 288 283 284 288 289 289 289 288 288 290 289 283 284 289 288 279 282 285 288 290 291 290 295 305 309 309 311 311 312 315 318 319 321
305 305 304 305 305 305 305 296 295 298 296 294 297 302 303 304 305 303 294 287 282 292 296 290 303 295 306 299 303 301 299 294 301 301 302 303 305 300 296 293 294 289 290 291 290 289 292 295 294 291 289 288 288 287 287 289 283 284 285 291 291 290 290 289 289 285 281 281 291 290 281 279 282 288 295 295 291 296 300 304 306 309 310 311 313 317 317 318
305 305 304 304 304 305 297 292 299 298 292 296 300 304 303 304 306 301 290 282 280 292 288 296 294 293 301 300 301 300 286 290 300 300 301 304 301 300 294 290 294 294 294 294 290 287 293 292 292 291 290 288 286 285 288 290 285 282 287 291 291 290 290 289 287 286 283 286 289 287 283 280 284 287 295 299 292 298 302 305 306 304 308 309 310 314 316 317
305 305 304 304 304 304 298 299 296 293 294 299 304 304 303 303 304 302 290 276 276 294 289 290 294 302 299 301 302 296 294 298 294 296 302 302 301 297 295 289 292 291 294 292 283 291 293 290 291 289 289 286 286 288 288 291 287 284 289 294 291 292 290 288 285 284 285 286 283 282 288 282 279 284 298 298 295 296 300 306 308 309 306 309 310 315 317 319
305 304 304 304 304 304 302 298 296 294 300 303 303 302 302 302 301 293 283 276 291 290 301 291 303 298 297 301 297 297 295 297 293 296 299 301 300 296 291 291 292 292 293 294 288 292 293 294 293 293 290 287 290 290 290 292 288 290 292 294 292 290 289 287 284 285 283 281 278 282 284 279 278 288 296 299 294 296 297 307 309 311 310 309 312 314 316 318
304 303 303 303 302 299 296 298 297 301 303 303 302 301 303 300 294 286 278 272 295 285 293 294 293 290 296 293 293 295 292 294 295 296 297 296 297 299 297 296 293 291 291 292 292 292 293 299 299 293 290 293 293 293 292 292 293 292 293 293 288 287 285 286 284 283 281 278 277 281 286 281 279 288 294 295 295 296 300 308 310 311 313 315 316 316 316 316
304 304 303 304 297 298 298 293 297 301 302 302 301 302 299 294 284 278 274 282 294 291 295 291 290 295 293 291 288 293 292 293 293 294 291 296 294 296 294 291 292 287 286 289 288 290 291 292 293 293 297 295 294 292 292 294 293 293 290 289 287 286 282 281 278 280 275 273 277 282 285 283 282 289 298 304 307 307 307 306 308 309 310 312 314 314 314 314
303 303 304 301 301 302 294 293 300 302 301 301 301 297 291 282 285 279 278 297 284 289 289 287 292 291 292 293 291 290 289 290 292 292 290 289 288 289 288 282 287 281 281 280 284 287 287 289 288 291 301 296 292 289 290 291 291 289 286 287 282 276 274 276 276 278 274 276 283 283 285 287 286 291 299 305 306 308 309 309 309 310 310 312 313 314 314 314
304 304 304 302 303 299 299 300 302 301 301 300 299 293 287 277 275 282 283 288 285 296 294 294 291 291 292 291 288 291 291 286 291 291 293 291 289 289 290 290 288 286 279 281 283 281 284 287 289 289 292 296 293 287 284 285 287 286 287 280 278 274 271 269 271 270 275 280 283 283 285 282 295 299 303 304 307 309 310 311 311 310 310 311 312 313 314 314
304 304 300 301 301 301 301 302 301 301 299 299 294 290 284 277 278 296 286 288 290 295 296 293 292 291 291 288 289 290 285 290 290 289 292 288 289 285 288 291 290 289 289 282 281 281 277 281 286 288 286 292 293 292 290 286 287 288 286 287 282 276 275 271 274 271 275 277 280 283 282 282 290 294 305 306 308 310 311 311 312 312 312 312 313 313 313 313
304 302 300 300 300 301 302 302 301 301 298 295 289 283 278 279 283 284 286 288 290 294 291 294 291 289 287 291 292 292 290 286 291 289 288 288 285 286 286 288 290 289 287 282 284 280 283 280 285 291 292 291 292 293 292 290 288 287 286 287 284 283 278 278 274 277 276 277 278 282 278 286 290 302 306 308 308 308 311 311 311 310 312 312 312 312 313 313
301 298 300 297 298 300 301 302 301 300 295 291 284 280 279 283 280 290 288 294 293 291 292 290 290 286 284 286 292 289 294 289 289 287 286 289 289 288 290 291 290 291 286 282 281 282 282 281 288 291 292 292 293 293 293 293 282 287 287 283 285 288 285 275 277 281 275 275 274 278 290 294 299 304 306 307 306 307 309 309 309 309 310 311 311 312 313 314
297 299 295 297 298 301 301 302 301 297 295 291 283 279 285 288 292 292 295 293 293 294 290 283 285 284 283 283 285 288 289 291 289 286 281 287 285 289 289 290 292 291 291 289 284 284 281 281 286 289 289 292 292 295 294 294 291 286 282 286 289 290 288 284 276 271 269 270 272 280 287 290 290 286 303 304 303 305 306 307 308 309 310 309 310 312 313 313
296 296 297 297 300 303 303 302 300 297 295 290 283 288 295 289 295 294 296 294 293 294 286 285 286 289 285 284 284 287 290 287 287 287 282 286 282 291 289 290 292 293 293 292 288 286 287 281 283 288 290 291 294 293 292 295 292 292 289 291 287 280 281 281 277 271 272 271 271 279 285 288 283 288 298 300 301 303 305 306 307 307 308 309 310 311 312 313
297 295 292 301 303 303 302 302 299 297 292 286 283 283 290 293 297 294 295 295 294 292 286 286 283 287 286 283 285 288 288 283 287 285 282 284 282 293 291 289 291 291 292 292 288 285 286 279 281 287 290 292 291 290 284 288 292 291 291 289 288 283 278 278 279 278 278 270 270 275 282 278 287 292 301 301 303 303 304 305 306 307 308 309 310 310 311 311
294 293 295 303 303 303 303 301 298 294 289 282 285 286 293 289 292 295 296 295 291 289 288 288 289 284 286 287 287 284 289 288 287 285 285 288 289 296 296 298 295 296 291 293 291 290 284 283 277 284 288 291 286 287 285 286 285 287 286 283 288 286 287 285 283 280 279 271 268 272 274 279 284 294 303 303 304 305 305 305 306 307 309 309 310 309 309 309
298 293 295 304 303 303 302 299 292 289 286 289 291 290 290 288 291 293 295 295 292 293 289 290 288 285 287 284 286 289 288 287 287 286 290 291 287 284 298 299 297 295 290 290 289 289 284 283 279 281 285 281 285 291 290 290 291 287 287 284 284 282 283 280 277 282 280 279 272 274 270 275 287 304 305 305 306 305 306 306 306 306 307 307 307 308 307 307
294 289 293 304 303 303 299 290 289 292 289 287 284 290 288 295 291 292 292 293 292 288 292 291 291 289 287 287 288 287 287 289 291 290 292 287 295 291 296 299 299 297 287 282 286 292 286 283 284 283 282 289 294 297 294 294 296 292 290 290 285 282 283 277 275 278 281 283 281 279 279 279 293 304 307 307 306 306 307 307 305 305 304 305 305 306 306 306
294 293 306 304 304 302 293 286 291 289 287 290 295 293 293 290 289 290 290 291 289 290 290 290 292 289 290 288 290 287 289 289 292 290 293 293 293 297 298 299 299 299 296 292 293 294 306 281 283 282 284 288 292 297 298 298 297 295 294 293 288 284 283 284 278 278 280 281 280 276 275 281 297 307 307 307 307 307 307 306 304 303 303 302 302 302 303 303
296 297 299 305 304 302 289 281 282 283 287 290 290 290 293 292 291 289 289 290 291 289 290 292 292 292 291 290 291 289 292 283 292 292 290 294 293 299 299 301 301 298 293 294 288 296 284 282 281 280 281 283 285 289 290 293 295 290 291 291 293 292 286 285 284 282 281 282 280 280 276 282 299 306 306 306 306 305 304 305 304 301 301 301 301 301 301 301
295 301 300 302 303 300 288 288 285 280 286 287 290 291 293 294 293 292 290 290 292 290 290 290 291 291 290 290 290 294 294 288 288 295 294 294 294 299 299 301 304 302 306 305 309 295 287 283 282 279 277 276 276 276 279 284 287 289 292 292 293 290 286 287 283 279 279 282 282 280 279 287 301 303 303 303 302 301 302 302 302 302 301 300 300 299 299 299
293 284 294 297 299 298 296 297 296 294 290 290 286 292 295 291 294 294 293 292 291 293 291 293 291 289 288 289 289 291 292 295 289 287 290 290 293 297 297 299 301 303 311 311 304 295 287 288 281 279 282 280 280 282 288 290 287 286 290 290 291 290 288 285 281 279 280 280 280 284 290 292 296 298 299 300 300 299 299 300 299 299 300 300 299 299 298 298
296 288 288 287 295 295 292 294 294 295 287 292 286 291 289 291 292 292 293 290 292 292 291 291 291 288 287 288 287 288 289 292 294 294 293 292 296 296 298 298 298 304 311 306 304 289 285 285 288 285 286 286 289 291 292 293 290 289 287 288 290 289 286 282 280 281 284 285 280 288 296 294 294 297 298 298 298 298 298 298 298 298 298 298 298 298 299 298
287 292 297 296 289 285 287 288 293 293 294 296 291 294 290 288 289 286 291 292 292 292 289 290 291 290 289 287 286 285 288 288 288 286 293 293 293 293 293 296 296 301 304 298 299 291 284 283 288 288 288 291 292 292 293 292 292 290 289 287 288 289 289 287 286 285 285 281 284 292 297 294 295 297 298 297 297 297 296 297 298 298 298 298 297 296 296 296
296 294 296 300 289 291 291 291 294 292 291 292 289 292 288 288 289 292 290 290 291 291 290 283 287 290 291 289 285 283 284 281 284 289 290 290 290 286 288 290 297 297 299 295 295 290 288 284 288 289 288 289 289 289 291 292 289 290 289 288 289 290 289 289 287 286 286 283 294 296 295 291 292 292 294 294 296 295 295 296 296 296 295 296 295 295 295 295
290 291 289 297 294 292 292 292 293 293 289 294 288 290 291 290 289 290 291 289 284 289 292 288 288 289 291 291 288 285 288 286 288 283 289 290 289 288 287 288 288 293 297 294 296 294 289 285 292 285 283 285 288 289 289 289 289 287 289 289 289 288 290 291 291 293 295 294 293 292 289 288 292 295 293 295 295 295 294 293 293 294 294 294 294 293 293 293
299 302 302 293 287 289 292 293 290 289 287 287 288 289 291 292 289 290 289 292 288 288 289 288 289 289 290 289 289 288 291 290 291 292 291 287 288 293 287 289 294 290 293 293 294 292 290 285 287 283 283 281 287 287 287 288 288 287 287 288 289 289 287 290 288 291 291 290 291 290 287 286 290 293 293 294 293 293 291 291 292 292 293 293 293 292 292 292
303 306 305 296 286 293 291 292 291 288 285 286 289 288 289 290 292 288 283 290 292 291 291 290 290 289 286 288 287 289 291 290 292 293 292 292 293 293 294 294 293 292 290 293 294 289 288 286 283 283 283 281 288 288 286 281 283 283 282 287 290 292 292 293 293 294 295 295 290 288 288 290 290 292 290 289 290 290 291 291 291 291 292 292 292 292 292 292
Wind_Speed
10 10 11 11 11 10 10 11 11 11 11 10 10 11 11 12 12 12 12 12 12 13 13 13 14 14 14 15 15 15 13 7 9 2 2 13 6 11 10 7 4 15 11 1 1 4 1 2 4 1 3 3 2 1 2 2 2 2 2 3 2 4 1 4 4 3 1 2 6 6 1 6 3 1 2 4 10 7 6 7 3 10 9 6 4 11 12 12
10 11 11 11 11 11 11 12 12 12 12 11 11 11 12 12 13 12 13 12 13 13 13 13 14 14 14 14 14 16 11 5 7 10 20 6 11 12 13 12 6 8 10 1 4 4 5 3 4 4 4 3 0 2 3 2 3 3 1 3 7 3 6 3 3 5 1 4 5 8 2 3 1 5 1 6 0 1 8 5 5 8 9 10 10 11 13 12
11 10 10 11 12 11 11 12 12 12 13 13 12 12 12 13 13 13 13 13 13 13 13 14 14 15 15 15 15 14 8 5 3 11 17 14 25 18 16 15 11 12 13 7 4 6 6 6 4 4 1 1 0 4 1 2 4 4 4 4 6 5 4 4 5 8 5 3 3 8 4 3 2 1 1 4 4 1 10 5 3 4 8 8 9 11 11 11
10 11 10 11 12 12 11 11 12 12 13 13 13 13 13 13 13 13 13 13 13 13 13 14 14 14 15 15 15 9 1 3 4 5 3 1 10 17 16 16 11 13 8 3 6 6 2 4 5 5 2 0 2 1 1 4 2 1 2 5 4 4 3 9 6 9 9 3 1 2 2 4 2 1 3 8 6 1 3 7 11 13 12 11 11 11 11 12
10 11 11 11 12 12 12 12 12 12 12 13 13 13 13 13 14 14 13 13 13 13 13 13 14 15 15 15 15 2 1 3 5 2 1 4 7 14 17 14 14 11 8 4 6 3 3 3 4 1 2 3 1 0 3 2 2 2 7 4 2 1 1 10 2 8 6 5 1 1 2 1 1 3 6 8 5 4 9 11 7 12 15 16 15 12 10 11
10 11 11 12 13 12 12 12 12 13 12 12 13 13 13 13 14 14 14 13 13 13 13 13 14 14 16 15 7 1 0 2 1 3 4 5 3 12 16 12 16 12 5 5 4 4 5 0 4 3 2 1 3 5 3 3 2 4 3 3 5 6 7 1 1 4 5 5 3 1 1 0 2 3 4 6 4 4 3 7 11 12 14 13 12 14 13 12
11 12 12 12 13 13 13 13 13 13 13 13 13 13 14 14 14 14 14 14 13 13 13 13 13 15 15 11 1 0 2 9 4 7 6 6 7 14 14 13 12 9 5 4 4 5 4 4 3 4 4 3 4 4 6 0 1 3 6 1 6 5 9 7 5 7 5 4 4 2 2 0 4 5 2 2 6 4 5 9 10 10 9 12 13 11 12 13
11 12 11 11 13 13 13 13 13 14 13 13 13 14 14 14 14 14 14 14 14 13 13 12 13 13 12 3 2 1 1 9 17 4 3 10 10 14 11 6 9 7 6 7 7 6 6 7 10 3 1 7 3 8 1 3 1 3 4 3 5 5 7 8 8 10 6 5 7 1 1 3 5 2 1 0 1 6 10 12 11 11 11 9 9 10 9 9
11 12 12 12 12 13 13 13 13 14 14 13 14 14 15 15 14 14 15 14 14 13 12 12 12 11 7 0 1 2 8 9 3 5 9 8 9 11 11 6 5 9 5 4 4 4 7 5 3 6 6 4 1 1 2 2 4 5 9 5 4 5 6 6 5 7 8 5 2 1 3 4 6 1 3 1 2 6 12 12 12 12 11 10 10 8 8 9
12 12 13 13 13 13 13 13 14 14 14 13 13 14 15 15 14 15 15 14 13 13 12 11 11 11 4 2 1 1 8 7 4 4 8 10 10 11 7 5 9 7 5 5 4 6 9 7 8 4 2 3 3 5 3 4 4 3 4 5 7 9 8 5 7 6 8 5 3 5 3 5 1 4 1 2 2 9 11 11 10 11 12 11 9 8 8 10
14 14 14 13 13 13 14 13 14 15 14 14 14 15 15 15 15 15 15 14 13 13 12 11 9 8 2 0 3 8 6 3 3 5 7 8 12 10 11 9 8 8 6 4 9 14 5 5 4 1 1 4 1 3 3 3 2 3 3 2 5 8 7 6 2 5 3 3 7 6 7 1 2 1 6 5 4 10 14 11 11 11 10 10 9 9 8 8
14 14 13 13 14 14 14 13 14 15 15 15 15 16 16 15 15 15 15 14 13 12 10 9 9 4 2 1 5 11 2 2 3 5 7 4 4 2 5 4 10 10 9 8 10 8 5 4 2 1 3 1 2 0 3 3 1 3 1 4 9 5 4 2 8 6 4 3 6 6 1 2 1 3 8 8 8 7 13 12 10 10 10 9 10 9 8 9
13 14 14 14 13 14 14 14 14 15 15 15 16 16 16 16 16 16 15 14 12 12 11 8 4 2 2 3 12 15 8 6 4 2 2 4 2 1 3 4 8 7 11 8 7 6 5 4 2 1 3 0 1 1 2 1 2 0 1 2 4 4 3 5 1 0 8 3 8 5 4 7 8 3 5 7 9 7 9 10 10 8 8 9 10 8 8 6
12 13 14 13 14 14 14 14 15 15 16 15 17 17 17 16 17 16 15 15 14 12 9 6 2 1 1 8 7 2 5 6 6 6 4 6 5 4 4 5 7 5 3 4 3 3 5 4 2 1 1 1 3 3 3 3 2 2 2 1 3 0 3 3 1 4 7 1 7 3 3 9 7 3 5 8 12 14 11 10 9 9 8 9 10 9 9 7
14 14 14 14 14 14 14 14 15 16 16 16 17 17 17 18 18 17 16 14 13 10 5 3 2 2 1 10 7 13 15 3 5 10 5 6 6 1 4 4 6 7 5 3 2 1 5 5 2 0 3 4 2 4 5 2 3 1 1 5 3 2 5 7 2 6 5 1 2 5 2 8 9 5 9 8 11 13 12 10 10 9 9 9 9 9 8 7
15 15 14 13 14 14 14 14 15 16 16 17 18 18 19 19 18 17 15 12 12 9 4 1 4 4 4 10 5 2 1 5 6 8 6 7 7 6 4 7 2 3 3 4 4 4 1 3 1 5 3 1 2 4 3 4 3 4 2 4 1 2 5 4 2 2 6 3 1 5 6 3 3 3 13 10 12 11 12 11 10 10 9 8 8 8 7 7
15 14 15 15 14 14 14 14 15 16 16 16 19 19 19 19 18 16 12 11 5 2 4 1 3 3 2 4 4 3 4 4 3 2 4 8 9 5 5 3 2 3 3 2 1 3 1 1 1 1 1 4 3 4 1 2 5 3 1 2 1 0 1 1 7 3 1 3 2 1 2 5 3 2 7 9 11 11 13 13 11 10 9 7 5 5 6 8
15 15 14 14 14 14 14 15 15 15 16 16 16 18 17 19 16 7 4 2 3 1 3 3 2 1 12 9 8 4 2 3 4 4 6 6 10 6 4 2 1 4 4 1 1 3 0 1 0 5 0 2 2 3 6 8 7 1 1 1 2 1 1 3 0 3 2 0 3 1 4 12 5 2 7 10 11 12 12 12 12 11 9 7 5 4 6 8
14 15 14 14 14 14 14 15 15 15 15 14 17 19 17 7 2 3 2 3 3 1 1 3 6 5 3 3 8 4 3 4 1 7 2 6 3 4 3 1 6 6 2 2 2 4 0 1 3 2 6 3 6 7 9 3 5 4 2 1 1 2 3 4 4 4 2 3 3 4 8 11 8 4 5 10 7 6 4 5 8 8 7 6 5 6 7 8
13 13 14 14 14 14 13 14 14 14 15 9 7 7 2 1 1 2 1 2 5 7 3 5 12 4 8 5 1 2 4 1 3 4 5 3 9 4 4 3 1 3 5 4 2 4 4 5 7 7 7 7 3 6 5 4 1 2 1 1 2 3 5 4 4 5 2 2 8 9 11 8 5 4 2 7 7 6 6 7 6 6 6 5 6 7 8 7
15 15 14 14 15 14 14 14 14 12 13 7 8 3 2 3 0 1 3 8 11 11 13 8 16 14 11 2 3 7 9 5 1 1 5 4 5 9 4 4 2 3 4 6 6 1 3 6 6 7 7 7 6 4 3 1 1 0 1 1 6 1 5 5 3 5 4 6 4 2 6 8 5 0 1 2 9 10 12 10 7 5 3 4 7 7 6 5
14 15 15 15 15 15 15 15 14 13 8 2 3 3 5 4 0 2 3 6 7 18 17 18 7 13 13 15 8 4 2 3 8 3 2 7 4 8 2 4 3 7 1 2 1 2 4 6 6 7 6 2 1 4 3 3 1 1 2 1 1 6 4 8 4 3 4 5 6 2 6 9 1 1 2 6 10 11 11 15 15 13 10 9 9 8 7 5
13 14 15 15 15 15 15 16 12 11 4 1 2 3 5 4 3 4 2 4 9 9 15 16 14 17 17 7 5 4 5 7 6 2 4 5 3 8 4 4 4 4 2 4 7 2 1 6 8 4 4 3 2 3 4 2 2 2 1 1 5 3 2 6 5 4 5 1 4 4 7 4 5 3 1 2 4 2 4 2 5 12 14 14 15 15 13 11
14 14 15 15 15 15 16 14 13 8 3 7 7 9 4 2 5 5 1 3 4 5 10 12 16 8 11 6 4 9 7 2 3 5 3 7 7 4 3 5 5 5 6 5 6 8 6 1 2 7 5 5 5 2 5 3 4 2 4 3 2 4 4 6 6 4 3 1 4 7 3 2 5 3 2 3 5 4 1 2 2 2 2 1 2 5 9 15
14 14 14 14 14 16 15 16 6 2 2 3 6 10 11 10 6 5 1 3 2 6 4 5 5 7 6 4 3 6 3 2 6 1 4 10 6 4 4 2 4 5 4 5 5 2 8 7 3 5 4 4 4 4 4 6 5 2 5 8 7 5 6 4 4 4 6 2 5 5 3 2 4 4 4 3 6 2 1 5 4 2 1 2 6 6 2 3
14 14 14 13 14 14 16 7 1 4 6 4 5 2 2 6 8 3 2 1 5 3 2 5 8 7 6 3 6 3 3 3 6 5 6 6 7 7 3 2 3 8 4 5 6 3 6 2 5 4 5 5 4 5 4 7 5 1 6 10 9 8 2 2 2 2 2 3 2 2 6 1 5 6 10 6 5 7 7 5 4 3 3 5 6 4 2 2
14 14 14 13 13 12 6 2 1 7 4 2 0 6 8 5 4 1 1 2 3 4 7 0 5 1 6 9 10 7 1 7 2 4 4 4 8 2 7 4 1 1 3 2 1 5 3 4 6 4 4 5 4 5 4 9 6 3 4 6 4 4 5 5 3 3 2 2 3 5 3 4 0 4 5 8 3 8 11 10 9 6 4 3 3 5 5 3
14 14 14 13 12 9 5 6 7 4 6 3 9 10 9 6 5 2 0 1 3 4 2 3 4 1 2 6 14 10 4 1 5 4 9 8 6 2 5 7 7 8 4 5 7 3 6 4 5 4 3 4 7 6 4 8 6 5 3 6 6 8 6 4 4 2 1 2 3 7 3 2 1 6 7 7 5 7 9 8 10 9 4 3 5 6 5 6
14 13 14 12 12 13 7 4 3 8 1 7 10 11 8 7 1 2 2 1 1 1 3 6 2 3 0 8 10 10 0 3 5 4 3 5 4 5 3 7 5 5 3 10 8 0 2 6 9 9 7 6 6 4 9 11 5 7 4 3 3 3 3 5 4 4 1 4 1 2 0 2 3 5 10 7 4 8 6 8 10 11 9 6 7 5 6 6
14 13 13 13 9 5 2 2 8 8 9 9 11 12 8 1 2 1 2 3 1 2 1 0 3 5 6 10 6 7 3 1 2 2 4 5 3 1 1 3 4 4 3 3 4 7 3 3 6 5 7 8 8 7 11 11 12 1 3 4 3 5 2 3 6 3 4 1 4 4 1 5 0 4 5 5 4 3 3 5 8 10 12 13 10 9 7 6
13 13 12 10 5 2 5 6 4 1 4 8 11 10 0 2 2 2 2 4 1 1 1 3 3 7 10 12 7 5 5 1 2 7 3 3 4 1 2 3 4 4 1 1 3 4 2 1 1 3 6 3 4 1 5 10 6 3 2 4 2 0 6 5 4 5 3 2 3 4 1 3 4 2 3 4 5 7 8 7 8 10 11 10 9 8 8 6
12 13 13 8 7 4 5 4 1 4 9 10 10 2 3 2 3 4 5 4 1 1 1 3 1 6 11 6 6 11 8 2 2 6 8 5 5 6 3 5 5 3 4 3 7 3 4 4 2 6 3 11 3 4 1 4 1 3 4 5 7 2 2 2 2 1 3 5 2 1 3 5 4 1 3 3 5 8 8 7 7 8 9 10 9 8 6 5
10 10 15 11 9 6 11 12 9 8 8 9 3 3 2 2 3 6 5 3 1 1 2 3 2 4 8 8 6 8 3 5 2 4 8 3 8 7 3 4 5 6 4 4 2 2 5 2 2 5 3 4 6 5 2 2 4 6 7 6 6 2 2 2 1 0 2 5 2 4 1 3 2 2 2 3 5 7 7 8 8 9 9 8 8 7 7 6
11 11 8 7 8 9 9 7 4 3 6 5 1 3 2 1 4 4 5 2 2 3 6 2 4 3 9 8 8 8 4 2 6 2 5 4 6 7 4 1 4 2 1 2 5 4 0 3 6 3 2 2 6 8 9 7 8 8 3 9 7 7 4 2 3 4 7 7 2 3 1 4 7 4 3 3 5 7 7 6 6 7 8 8 8 9 9 8
12 12 10 8 7 11 13 9 4 3 1 2 4 2 4 6 0 1 2 2 1 3 7 4 3 8 6 0 2 9 5 1 2 7 4 7 6 4 7 6 3 4 2 4 2 2 7 5 6 6 3 3 8 4 4 7 6 0 3 6 7 5 7 1 4 4 3 2 1 3 1 0 3 2 3 4 4 7 8 6 6 8 8 7 8 8 7 6
11 6 5 5 4 5 9 7 7 4 3 3 5 2 8 3 2 1 1 2 1 3 9 9 1 5 4 2 1 9 4 3 3 4 2 7 5 7 5 4 7 8 4 6 4 2 2 1 3 6 1 4 7 6 4 7 6 3 3 4 4 5 10 5 1 0 1 4 1 1 4 3 1 1 2 5 8 8 8 6 6 8 8 8 8 6 6 5
6 8 5 3 7 3 6 9 8 6 2 4 4 7 1 4 5 4 2 5 5 5 5 1 1 4 4 4 3 7 4 4 4 4 3 1 0 4 3 5 5 6 7 7 1 2 6 5 4 1 2 5 2 5 3 0 6 6 2 7 2 3 5 7 5 3 3 3 2 1 6 5 4 1 2 7 8 7 7 5 6 7 7 10 8 7 7 7
8 7 9 9 8 7 9 10 11 4 2 4 7 2 1 4 3 3 3 8 5 2 3 0 1 5 3 5 4 6 3 7 4 4 3 4 2 2 5 1 3 8 10 5 4 2 2 2 3 2 4 5 3 3 5 2 2 10 9 5 6 1 2 2 5 1 1 1 1 3 0 2 3 2 4 8 8 8 6 5 6 7 8 8 8 8 8 8
6 4 5 2 6 10 11 11 7 5 2 4 3 2 4 6 5 7 7 7 3 3 1 2 1 1 3 4 2 2 7 6 5 5 5 2 2 1 1 3 1 4 5 9 4 1 2 2 5 2 1 1 2 4 4 1 3 4 5 4 1 6 4 3 4 4 6 3 2 0 3 3 3 3 6 9 9 9 7 6 7 6 6 6 6 7 8 8
4 3 2 3 8 10 12 8 3 2 1 4 2 4 1 4 6 10 7 4 4 0 2 0 2 2 1 1 4 4 6 8 8 3 3 0 4 2 0 2 2 1 9 7 4 3 1 1 1 3 3 1 1 1 7 6 4 2 2 1 1 1 2 6 1 2 4 5 4 4 0 2 2 3 6 9 9 9 7 6 6 5 6 6 6 7 6 7
3 2 2 4 8 10 9 2 3 4 3 2 2 3 5 5 7 10 10 9 4 3 4 2 1 1 0 2 1 1 3 3 3 2 1 2 3 1 1 0 1 2 2 4 2 0 2 1 5 3 3 2 3 3 5 10 9 8 8 6 8 5 4 4 4 1 3 3 3 4 3 2 2 2 4 9 9 9 8 8 6 6 8 7 8 8 7 7
2 0 1 7 10 11 8 6 1 2 0 2 3 1 3 4 6 8 8 7 2 3 0 0 1 1 1 0 0 1 3 3 2 3 2 4 1 2 1 6 3 2 7 5 6 2 5 3 2 2 1 2 2 5 1 7 12 6 5 2 2 3 7 4 3 3 3 2 5 3 6 1 2 2 3 8 8 7 8 9 9 7 7 7 6 6 7 8
2 1 2 11 11 8 2 3 0 1 2 3 4 7 4 5 4 4 6 5 3 1 1 2 0 1 2 0 0 3 3 4 2 4 2 3 2 1 6 7 0 4 6 1 2 0 4 1 2 2 2 5 4 1 4 5 7 6 5 3 3 1 4 8 5 5 6 3 2 2 2 2 2 2 5 8 7 8 5 6 11 6 5 6 7 7 7 8
3 1 3 5 9 2 1 3 3 2 2 4 4 6 4 4 2 5 2 4 1 2 0 1 3 1 1 1 3 2 1 4 6 4 3 1 3 4 7 8 2 1 2 4 4 3 2 2 6 1 2 3 4 2 7 5 7 4 1 2 1 0 2 2 6 1 5 2 4 7 5 4 2 7 6 10 8 9 8 7 7 8 6 6 6 6 6 7
3 1 3 2 5 3 1 3 5 2 3 2 2 6 4 2 5 9 6 5 4 2 1 1 1 1 1 1 3 3 7 5 3 4 3 2 2 2 7 10 6 4 3 2 5 4 5 1 3 4 6 5 3 1 1 1 1 1 2 5 4 3 4 5 1 1 3 1 3 5 2 5 5 10 8 10 9 11 7 8 7 7 7 6 6 6 7 7
1 3 1 2 3 3 4 2 1 1 1 0 2 6 1 3 5 5 8 6 5 1 2 1 1 4 3 4 6 7 9 7 4 2 2 2 2 3 3 7 6 3 4 10 4 4 3 2 3 4 7 7 6 4 1 3 3 4 2 5 6 1 2 3 5 5 7 4 3 3 7 10 10 12 9 10 8 12 8 7 7 6 7 6 6 6 6 7
3 2 3 5 2 5 5 1 2 2 1 2 1 2 2 6 4 3 7 2 1 0 2 4 3 3 2 5 3 5 3 6 9 8 4 4 0 0 6 6 6 8 9 2 5 6 4 5 5 4 6 2 1 1 2 1 7 1 2 3 4 5 2 4 6 5 8 11 1 1 7 15 11 11 11 10 9 10 8 7 7 6 6 6 6 6 7 8
1 2 1 3 3 5 5 6 4 3 2 1 3 1 4 3 2 2 2 0 1 3 2 4 8 3 1 3 3 4 2 4 4 3 2 3 2 4 4 7 5 8 6 2 3 5 5 4 2 4 6 7 7 7 8 9 7 4 5 3 6 4 5 5 0 1 3 8 9 9 10 11 10 9 9 10 9 11 9 10 7 7 6 7 7 7 8 9
1 2 2 2 0 1 6 3 4 7 6 5 2 2 4 3 0 1 1 1 4 4 2 2 5 5 5 3 6 2 1 4 3 2 1 1 2 1 2 3 3 7 5 3 5 2 6 3 1 4 8 8 8 6 3 12 3 7 8 6 4 8 7 5 4 2 1 2 13 15 12 9 5 5 7 8 6 9 10 8 7 9 7 6 6 7 8 7
1 1 2 2 1 1 2 1 2 4 4 6 5 7 3 2 2 2 3 2 2 2 3 9 4 9 9 10 6 4 1 3 6 3 1 3 1 1 1 2 1 3 5 3 0 3 5 1 4 0 5 4 6 7 7 5 6 6 6 8 7 4 10 8 7 8 14 12 12 16 15 8 4 6 9 6 6 8 11 11 9 8 6 6 6 7 7 7
3 3 2 1 0 2 1 1 2 4 3 2 4 6 2 1 4 3 2 1 2 3 3 10 8 7 6 11 9 5 1 4 6 6 4 4 5 2 3 1 2 1 3 2 3 3 7 3 2 1 6 1 2 5 6 6 10 10 7 11 11 7 6 3 3 2 3 10 11 15 11 6 5 6 7 6 7 9 10 9 7 7 6 6 6 6 7 7
3 4 2 2 1 2 2 1 1 4 2 5 5 3 1 0 3 1 4 5 6 3 7 8 5 12 4 10 6 3 3 3 4 5 4 3 3 2 0 3 3 2 1 1 0 3 3 6 3 2 7 2 2 1 1 2 4 5 4 6 7 4 4 6 6 5 2 13 16 12 8 6 9 7 9 8 8 7 6 8 7 8 6 6 6 6 6 7
Wind_Direction
317 319 317 315 317 321 319 320 318 315 317 320 320 321 320 322 322 322 324 326 324 324 324 323 322 320 323 320 320 322 332 328 310 289 216 239 158 210 174 219 206 202 185 75 67 106 70 132 156 251 104 120 235 125 234 134 201 110 159 130 278 195 176 220 206 198 142 296 292 323 27 105 85 41 109 36 44 72 61 43 11 46 48 60 60 94 107 124
312 314 313 312 313 316 317 314 316 316 316 316 320 320 321 320 321 322 324 325 326 323 324 324 322 321 321 318 322 324 333 293 284 268 240 193 192 192 199 211 176 161 159 271 171 164 134 194 187 145 126 159 292 193 140 241 161 165 151 123 225 185 239 178 218 259 350 275 283 286 294 100 150 127 202 84 343 101 63 41 38 73 68 76 94 104 118 139
310 311 318 313 310 313 312 312 314 315 315 315 316 320 321 318 319 321 323 324 323 324 325 322 323 322 319 320 320 330 330 309 280 269 270 216 228 200 192 205 199 149 164 178 201 169 171 184 166 109 55 120 317 197 155 258 157 223 121 206 240 205 243 246 243 273 240 237 295 281 325 55 206 119 105 124 140 54 131 131 32 106 130 124 119 120 131 143
320 316 311 312 311 310 315 312 310 313 313 314 317 318 319 318 317 320 322 323 322 323 325 324 322 322 320 316 321 326 342 269 281 250 269 196 212 207 195 196 171 165 164 146 165 157 160 118 131 121 101 174 286 244 197 250 143 266 145 206 230 206 237 268 248 251 279 286 233 233 318 12 95 155 102 142 92 249 262 218 164 177 156 139 135 136 148 155
320 315 312 310 310 309 311 314 314 310 312 312 315 315 317 315 317 318 321 320 322 323 323 323 323 319 319 318 318 36 257 5 262 235 257 291 228 193 187 188 160 161 169 133 101 116 129 126 122 106 102 208 311 25 239 256 197 108 215 240 192 325 182 260 245 271 265 268 123 267 63 252 67 65 123 153 137 219 200 205 227 162 156 149 151 155 156 162
320 314 312 313 312 311 306 307 308 311 310 311 312 313 314 314 314 316 317 318 320 322 323 324 322 323 318 322 320 155 266 267 294 295 6 323 204 165 172 164 154 151 133 118 129 139 119 74 101 137 163 122 207 184 264 216 136 248 298 238 209 224 233 284 223 264 253 292 261 341 201 103 23 135 203 146 174 234 193 154 166 169 154 149 143 153 165 161
317 309 307 309 307 309 310 312 313 312 310 311 312 314 313 312 314 314 315 318 318 321 322 323 323 322 324 328 276 249 198 270 326 245 52 61 119 151 146 145 133 126 131 119 144 148 176 140 131 174 127 170 263 204 248 8 172 183 251 274 280 209 234 254 264 278 298 244 237 232 99 346 17 327 161 139 264 262 120 118 130 137 139 145 152 171 164 163
320 319 311 306 305 305 307 306 306 307 309 311 313 312 312 310 312 313 315 315 317 317 322 321 323 323 335 12 343 305 61 249 249 307 40 95 119 138 123 105 126 126 148 178 168 167 151 157 178 136 135 161 223 178 246 208 187 203 258 255 257 265 243 249 236 250 265 271 277 86 198 224 191 212 71 141 284 111 108 119 132 138 142 150 157 163 161 161
324 322 319 312 308 307 304 306 307 305 305 308 310 310 308 310 312 313 312 314 314 317 315 320 323 321 345 329 241 316 249 242 250 166 112 108 123 131 132 136 148 143 169 168 174 155 151 218 135 169 207 213 233 154 271 148 299 206 228 241 268 260 257 244 255 253 238 250 228 206 258 265 240 292 49 268 119 121 119 122 140 142 146 156 166 167 168 163
319 316 310 313 308 305 306 307 307 306 305 305 307 308 307 307 311 309 309 311 311 312 314 319 319 326 4 350 334 243 261 228 316 147 131 127 129 136 159 121 152 147 133 200 154 157 196 193 170 195 113 209 208 229 197 154 236 181 224 236 248 255 258 244 213 234 216 222 160 202 245 257 271 123 287 302 188 124 119 128 141 150 156 164 165 173 182 173
314 311 304 304 311 309 305 308 307 305 306 306 308 308 306 308 309 305 307 307 309 310 312 310 323 321 354 327 182 225 254 72 13 78 95 131 132 146 184 160 163 161 167 153 190 199 177 113 159 125 97 226 138 269 166 223 189 237 223 297 273 261 256 250 274 241 140 248 181 180 225 276 326 111 177 185 199 146 132 137 147 154 167 169 169 181 186 184
317 314 309 303 305 308 307 306 305 304 305 308 308 305 305 307 304 304 304 305 305 306 307 311 306 308 273 228 228 225 321 96 85 79 103 121 143 186 19 156 170 174 164 180 217 210 166 174 148 113 188 33 300 265 257 217 274 267 23 323 289 340 310 227 204 217 169 251 171 162 30 312 338 218 185 168 150 154 138 145 155 164 168 171 176 186 192 190
316 315 315 310 304 304 303 309 307 306 307 308 306 304 304 304 303 302 302 301 302 302 303 304 303 235 345 316 232 242 280 273 304 357 118 174 226 235 175 160 199 187 187 187 211 197 186 167 135 169 246 162 210 202 186 146 250 312 89 174 314 345 331 273 230 171 160 232 161 148 255 262 254 284 190 148 143 135 136 149 162 168 170 172 180 192 200 192
311 315 312 308 312 309 307 307 307 307 306 307 304 303 303 302 301 299 297 296 298 299 300 291 305 348 203 246 275 261 219 256 291 300 224 181 184 247 171 194 196 218 237 233 296 167 168 177 132 217 271 237 278 289 355 345 22 205 247 100 230 20 267 285 212 176 159 120 167 92 202 277 266 260 206 166 148 153 162 164 167 170 174 178 182 194 203 198
311 311 310 307 305 304 305 309 307 307 308 308 306 304 304 301 298 295 294 296 293 293 287 291 250 168 206 266 271 268 246 228 242 235 144 143 170 284 224 178 194 200 216 222 281 179 145 123 102 175 267 232 227 292 302 16 358 7 26 284 319 155 275 302 297 148 170 334 180 101 262 235 275 160 194 179 163 157 160 171 173 173 179 181 184 195 202 203
310 305 304 308 307 308 306 309 307 307 308 309 307 306 302 298 295 290 288 285 282 270 256 337 205 212 318 290 260 322 238 202 256 226 190 156 164 200 195 179 141 178 188 266 227 282 27 111 177 197 231 352 108 90 32 18 337 355 132 267 271 208 246 345 318 275 206 128 315 155 208 327 326 196 180 184 165 171 160 173 177 179 182 180 187 190 193 197
307 304 304 308 310 308 308 310 309 308 311 312 310 306 301 292 285 282 282 278 281 236 185 143 141 192 200 230 332 300 242 220 201 76 149 189 169 178 100 122 182 187 171 285 325 172 288 116 272 73 13 154 154 101 151 333 299 301 14 190 214 267 311 251 305 341 331 145 203 275 220 237 151 358 185 176 178 173 169 175 180 181 182 186 176 168 181 203
306 306 303 304 310 308 310 310 308 311 313 315 316 311 300 291 285 274 278 245 168 195 192 273 182 244 273 273 285 232 276 268 178 175 167 179 177 158 142 161 94 133 113 150 210 155 183 199 351 215 62 106 103 94 135 215 195 198 307 20 321 333 221 227 73 262 109 33 196 191 221 259 161 76 180 198 195 180 177 171 181 181 184 182 169 157 186 205
308 310 310 306 306 306 310 308 308 312 316 320 316 309 292 289 45 111 101 135 124 37 7 214 149 153 242 266 223 294 301 258 65 126 195 126 184 166 225 125 104 127 122 88 282 144 309 150 41 112 192 156 190 171 188 182 142 149 128 156 156 357 308 322 254 275 279 269 229 196 219 238 233 129 176 214 192 168 176 177 180 186 184 173 164 172 193 205
307 307 309 309 309 306 308 307 308 313 321 320 338 329 355 35 39 35 317 239 243 205 209 170 205 296 325 275 18 254 265 311 166 219 142 160 115 157 223 179 119 75 114 159 213 190 138 169 186 189 201 206 198 184 172 194 107 151 79 53 305 307 293 277 261 258 218 278 232 216 224 235 251 130 135 188 168 143 151 188 192 195 182 169 169 187 199 201
307 308 307 310 309 308 308 309 308 311 319 324 326 340 170 188 169 272 196 234 231 247 256 233 196 225 242 324 15 31 15 326 23 312 186 148 118 123 226 151 148 161 188 176 153 240 103 176 226 205 202 191 196 181 117 116 33 111 335 17 308 330 279 267 289 312 283 170 279 178 213 243 230 159 272 181 160 179 174 177 188 183 176 182 180 191 199 204
310 306 304 305 309 307 309 304 309 310 322 357 312 268 295 278 242 23 334 290 235 232 243 252 230 247 254 266 293 321 343 294 312 293 299 139 162 157 250 143 149 182 231 126 78 55 187 201 226 212 204 159 127 101 130 161 172 65 204 198 2 289 245 287 294 276 315 149 279 126 180 234 231 45 147 169 185 194 185 179 181 171 173 177 189 192 190 200
310 307 305 307 307 309 309 306 302 317 330 131 209 202 244 231 304 356 347 266 281 229 224 233 243 243 256 263 256 180 181 207 223 256 190 138 133 191 156 133 175 156 134 129 167 118 207 270 239 204 128 158 259 116 116 84 73 143 84 84 230 235 18 303 290 323 346 138 211 176 175 274 347 337 359 259 221 274 227 220 179 173 170 177 189 187 185 193
309 311 310 307 306 308 308 308 315 315 238 218 223 215 238 267 289 319 290 224 285 262 194 213 215 237 240 202 201 179 183 224 160 242 180 144 163 168 134 161 158 137 183 157 158 173 204 231 190 139 153 159 215 174 126 143 250 274 166 177 224 252 224 183 261 315 311 8 79 79 49 339 355 43 62 356 332 316 181 123 138 245 246 295 246 213 193 184
310 310 310 309 310 312 313 318 302 239 288 229 238 246 254 263 262 228 146 309 283 276 197 230 165 234 228 133 143 163 206 301 228 190 168 166 152 117 210 145 113 193 170 177 126 164 257 243 98 122 161 179 196 239 184 149 222 314 227 186 208 224 249 277 305 7 21 353 347 110 55 302 298 283 134 16 342 333 316 169 167 179 293 164 188 209 261 333
308 306 308 311 314 318 318 304 256 339 305 248 230 220 280 312 294 193 134 89 301 260 96 238 146 253 128 202 152 158 101 245 214 199 161 181 154 163 137 186 133 197 175 137 171 198 215 138 155 169 165 194 190 210 216 150 182 128 270 186 204 221 194 171 281 69 11 91 359 68 129 255 325 13 345 24 351 8 20 23 350 306 250 192 191 185 194 36
309 310 310 311 314 323 339 281 13 318 266 251 193 334 316 309 312 140 124 349 323 212 165 18 161 239 168 178 155 136 93 253 100 140 152 153 172 119 129 206 125 97 143 157 81 257 136 182 173 156 156 169 188 228 231 156 143 226 237 155 167 142 153 202 126 119 186 251 299 48 110 143 274 337 349 348 106 46 22 5 350 309 264 326 17 35 35 58
309 308 309 310 310 314 282 301 307 281 246 322 328 324 317 326 322 167 327 73 280 148 154 207 229 133 214 170 148 168 197 169 131 233 176 171 111 117 135 188 174 170 170 110 186 257 161 178 159 168 172 173 205 206 191 156 146 212 229 148 170 170 176 159 97 109 83 108 284 328 350 71 291 285 330 4 55 26 33 4 352 340 292 129 101 113 105 82
309 309 307 307 305 303 299 243 267 255 271 332 322 317 323 317 155 100 102 184 170 166 78 107 228 134 109 133 157 194 32 195 179 172 107 125 165 140 160 207 176 162 173 165 203 72 261 169 193 172 157 209 221 182 155 164 193 266 218 98 74 81 79 119 108 94 357 71 275 264 75 119 291 309 348 344 55 21 3 12 22 16 21 71 80 81 88 95
307 306 304 303 311 306 299 245 233 262 305 323 316 308 312 65 46 59 72 267 196 241 191 272 192 191 147 148 178 191 200 280 113 79 131 149 222 153 220 118 132 127 202 239 203 226 226 336 151 123 188 212 208 198 170 173 203 135 130 139 50 38 49 34 65 99 71 52 253 241 252 130 193 313 350 351 337 289 318 38 28 28 37 49 63 75 68 69
303 302 299 297 279 283 320 271 251 211 311 323 317 298 35 37 118 125 202 235 294 105 109 146 195 129 146 155 169 196 208 181 81 130 145 134 171 101 76 50 50 58 41 324 277 304 351 349 129 236 194 225 168 136 196 195 193 167 155 156 147 323 8 32 345 40 93 279 257 254 161 110 134 282 347 360 30 37 43 42 38 44 47 49 54 60 64 62
303 302 299 291 267 247 249 249 121 340 339 325 319 20 78 170 358 176 207 346 19 259 154 202 209 154 168 167 152 177 175 130 130 150 153 155 158 184 218 159 164 140 203 202 236 7 300 231 236 287 216 185 161 165 262 187 145 124 90 77 147 242 58 243 11 154 162 172 237 172 195 44 31 197 261 21 32 44 38 39 46 54 52 55 51 47 45 53
300 293 292 284 279 254 246 258 292 316 325 322 327 57 89 121 210 237 275 321 278 72 256 142 170 161 163 145 182 175 115 165 184 166 145 130 149 206 223 151 190 144 177 240 184 25 273 282 312 268 305 190 133 147 191 101 181 143 163 139 102 118 60 180 276 222 326 296 237 206 73 85 149 141 307 35 44 53 54 53 54 61 62 57 54 41 35 34
298 297 290 258 251 237 244 245 252 317 316 306 79 58 45 125 237 217 231 266 248 354 318 263 114 115 151 176 184 150 161 213 154 156 143 140 142 188 238 291 135 140 141 96 166 182 163 302 283 151 278 189 155 177 175 172 162 196 145 144 170 142 157 181 191 167 194 184 244 277 110 198 165 176 136 71 48 70 70 54 53 63 64 66 62 54 44 33
301 294 275 272 253 243 235 224 208 217 278 358 70 98 174 226 251 210 226 284 309 50 286 356 133 143 195 132 106 163 147 189 168 128 160 133 195 163 186 211 238 121 130 134 248 83 188 198 254 215 216 153 174 204 143 119 103 302 154 66 102 207 141 145 202 147 169 167 54 7 104 261 150 75 94 81 69 71 74 56 53 54 60 67 64 58 54 43
309 281 257 250 217 241 201 186 167 157 183 97 96 175 222 194 215 141 205 264 305 64 292 317 185 138 156 176 202 178 199 116 212 115 208 179 170 180 202 190 194 185 135 164 201 151 51 301 263 299 264 199 201 137 223 145 170 222 89 160 208 174 110 81 68 74 139 70 135 213 97 63 164 54 102 98 73 58 68 69 59 56 59 64 64 64 61 57
289 307 285 237 228 187 157 156 157 154 140 118 139 227 220 288 231 264 299 345 294 286 278 40 227 122 154 181 180 176 197 89 198 138 216 106 336 198 191 236 176 180 187 134 294 188 138 237 295 112 247 271 176 180 144 8 144 84 136 224 107 88 100 130 188 331 56 146 230 40 138 163 144 186 190 114 102 91 90 71 70 64 62 63 58 55 52 43
309 299 279 259 233 143 144 149 141 158 101 145 210 241 240 258 274 282 327 316 323 341 295 150 265 91 173 139 216 173 171 163 204 149 187 187 217 213 167 174 199 182 198 169 154 274 134 342 301 245 235 274 81 65 43 51 359 155 193 171 116 212 223 321 97 122 108 179 221 3 315 152 149 176 168 129 117 113 105 92 76 65 60 59 58 51 41 28
291 305 300 287 135 135 143 146 146 125 87 181 226 226 255 253 299 296 298 289 247 265 268 250 148 2 129 135 193 100 153 180 180 166 120 231 136 66 175 169 220 209 191 153 166 183 57 141 290 304 166 280 43 89 195 265 339 38 86 88 80 104 149 120 201 171 119 209 86 355 97 201 216 187 155 134 132 128 122 116 104 87 78 68 49 42 37 31
259 270 257 53 124 131 143 153 108 76 94 200 176 227 337 317 287 294 294 326 311 201 265 222 52 71 3 156 138 151 195 168 159 220 103 303 107 279 298 343 170 206 162 177 192 165 225 122 179 282 298 94 147 176 196 166 162 131 75 356 218 36 209 104 38 107 165 167 170 145 336 272 259 220 155 141 138 138 132 122 107 89 92 69 54 50 52 40
228 255 321 120 133 142 150 141 98 174 170 260 238 276 312 291 311 295 297 267 232 249 216 297 117 74 214 62 337 181 128 136 116 96 112 29 118 113 260 330 302 102 113 125 127 88 87 98 194 306 17 12 240 265 214 181 171 166 163 183 170 109 130 149 252 11 88 106 183 127 223 271 262 216 170 136 136 141 137 130 101 96 73 64 50 40 37 40
275 204 255 140 156 166 147 135 225 179 156 220 220 236 279 310 287 289 316 314 268 264 129 83 22 93 348 300 176 57 108 83 103 97 6 136 350 120 303 10 330 156 127 162 178 225 147 166 108 235 170 149 274 324 354 128 90 82 98 31 130 122 108 97 134 256 41 41 104 142 110 280 247 275 137 133 137 140 139 127 110 79 64 58 49 40 38 37
225 249 70 154 177 197 95 62 88 132 213 237 289 290 272 271 245 294 314 306 315 348 3 35 106 91 302 196 80 83 95 75 67 123 168 108 94 29 294 315 143 43 83 353 51 289 92 79 112 303 318 301 300 290 37 35 91 67 24 45 60 123 176 162 171 182 141 155 104 26 63 250 274 155 128 106 104 96 64 100 107 80 61 47 40 32 24 32
309 10 90 176 200 277 63 149 206 236 276 292 271 261 221 236 293 300 272 291 277 329 87 324 350 77 139 358 59 54 20 97 18 75 69 54 65 311 360 350 107 129 95 203 136 227 128 282 122 111 61 338 340 357 360 349 51 70 60 340 354 280 72 126 104 54 101 214 169 124 185 239 201 126 113 104 105 100 101 65 74 92 65 50 38 27 25 26
300 335 46 150 219 279 265 199 133 164 198 232 300 294 318 291 214 227 228 272 295 254 70 352 252 275 22 13 79 45 36 115 115 10 105 97 93 332 348 8 357 89 51 180 122 124 85 168 117 162 152 159 157 209 244 25 25 321 49 351 11 76 138 121 172 48 124 225 103 112 160 260 142 119 114 109 99 76 68 84 67 60 61 45 34 25 21 23
181 116 26 113 219 224 266 272 34 121 109 129 331 275 261 272 300 243 194 245 240 259 84 225 344 83 28 41 37 35 33 29 95 197 70 49 358 10 352 337 26 43 38 79 67 76 120 102 84 158 153 183 199 204 244 122 50 64 337 26 342 27 14 95 104 111 176 179 99 231 154 142 138 130 127 123 118 113 99 75 74 61 50 40 36 32 26 25
339 114 155 160 186 234 254 292 182 144 198 193 160 288 270 230 245 291 169 217 305 109 61 37 355 50 333 69 90 59 5 51 35 73 25 110 77 251 309 9 346 13 359 63 20 87 74 63 1 97 69 126 149 85 34 321 120 83 59 348 357 1 38 80 129 210 156 112 359 259 176 136 149 132 128 118 110 105 102 82 74 61 55 52 39 31 24 22
147 241 232 198 144 193 211 265 184 210 262 23 285 356 262 270 250 206 332 28 212 17 111 348 24 33 78 135 121 82 13 63 34 80 358 16 68 351 27 354 40 331 3 44 5 100 119 100 314 78 52 49 49 72 84 65 57 92 84 46 33 2 66 92 343 198 111 149 171 170 149 128 132 124 122 123 125 116 104 85 74 76 60 46 32 29 24 22
200 277 295 266 178 224 171 205 173 184 225 209 262 233 277 244 112 225 167 339 30 354 62 93 349 355 47 69 94 120 64 74 7 359 126 35 62 57 40 344 358 14 44 43 28 104 93 37 10 97 84 39 19 24 22 100 102 55 38 30 29 67 63 78 73 345 174 152 134 133 115 90 79 91 94 98 93 101 98 86 75 67 59 51 32 27 22 13
247 161 230 343 75 158 187 117 188 176 207 206 201 239 238 254 36 345 18 77 80 49 21 86 72 47 63 68 74 79 242 167 162 122 246 118 20 78 131 176 238 333 42 49 77 348 102 244 219 336 71 17 14 34 39 69 104 78 31 28 26 56 70 50 84 78 85 72 91 112 104 100 59 91 102 97 102 99 85 80 78 75 64 63 51 37 16 9
305 294 288 56 35 267 109 173 141 164 175 236 195 267 192 288 93 111 91 315 145 140 103 126 115 74 51 75 71 88 169 129 105 114 167 145 121 212 117 255 138 66 3 26 33 347 64 144 52 57 88 16 353 66 68 69 80 85 46 16 8 2 54 20 54 309 123 128 120 111 112 140 133 94 83 82 80 87 99 100 88 80 63 62 58 42 28 9
270 252 262 114 129 262 173 223 157 97 240 218 179 247 161 250 242 124 59 9 24 81 140 132 115 93 42 69 67 124 191 154 139 155 144 101 104 139 147 139 138 143 137 59 17 80 121 124 135 123 89 138 177 60 34 35 46 31 348 343 343 20 70 82 43 42 40 138 133 157 174 111 128 128 105 68 62 60 74 91 103 87 73 67 61 48 30 13